When you browse on this site, cookies collect data to enhance your experience and personalize the content and advertising you see.
Visit our Privacy Policy to learn more. By continuing to use the site, you agree to this use of cookies and data.
  • In Hungary
  • List of Countries
  • For 7 days
  • Water Temperature
  • Weather Map
  • News
  • Weather Widgets
  • user-avatar
    Login

    Hourly Weather Erlangen

    Today, 7 December, Saturday

    Time Temperature Precipitation Wind Pressure Humidity
    00:00 +3°C° 0.9 mm 4 mps 734 mmHg 84%
    01:00 +3°C° 0.9 mm 5 mps 733 mmHg 87%
    02:00 +3°C° 0.3 mm 5 mps 733 mmHg 88%
    03:00 +3°C° 0.3 mm 6 mps 733 mmHg 89%
    04:00 +4°C° 0.3 mm 6 mps 733 mmHg 91%
    05:00 +4°C° 0.1 mm 6 mps 733 mmHg 91%
    06:00 +4°C° 0.1 mm 6 mps 733 mmHg 91%
    07:00 +4°C° 0.1 mm 6 mps 734 mmHg 91%
    08:00 +4°C° 0.1 mm 6 mps 734 mmHg 91%
    09:00 +4°C° 0.1 mm 6 mps 735 mmHg 91%
    10:00 +5°C° 0.1 mm 5 mps 735 mmHg 91%
    11:00 +5°C° 0 mm 5 mps 735 mmHg 90%
    12:00 +6°C° 0 mm 5 mps 736 mmHg 89%
    13:00 +6°C° 0 mm 5 mps 736 mmHg 88%
    14:00 +5°C° 0 mm 5 mps 736 mmHg 89%
    15:00 +5°C° 0 mm 4 mps 736 mmHg 90%
    16:00 +5°C° 0 mm 4 mps 736 mmHg 91%
    17:00 +5°C° 0 mm 4 mps 736 mmHg 91%
    18:00 +5°C° 0 mm 4 mps 737 mmHg 90%
    19:00 +5°C° 0 mm 4 mps 737 mmHg 90%
    20:00 +5°C° 0 mm 4 mps 737 mmHg 91%
    21:00 +4°C° 0 mm 4 mps 737 mmHg 91%
    22:00 +4°C° 0 mm 4 mps 737 mmHg 92%
    23:00 +4°C° 0 mm 4 mps 737 mmHg 92%

    Tomorrow, 8 December, Sunday

    Time Temperature Precipitation Wind Pressure Humidity
    00:00 +4°C° 0 mm 3 mps 737 mmHg 92%
    01:00 +4°C° 0 mm 3 mps 737 mmHg 92%
    02:00 +4°C° 0 mm 3 mps 736 mmHg 92%
    03:00 +4°C° 0 mm 3 mps 736 mmHg 93%
    04:00 +3°C° 0 mm 3 mps 735 mmHg 93%
    05:00 +3°C° 0 mm 4 mps 735 mmHg 91%
    06:00 +4°C° 0 mm 4 mps 735 mmHg 89%
    07:00 +4°C° 0 mm 4 mps 734 mmHg 87%
    08:00 +5°C° 0 mm 4 mps 734 mmHg 85%
    09:00 +5°C° 0 mm 4 mps 734 mmHg 83%
    10:00 +6°C° 0 mm 5 mps 733 mmHg 82%
    11:00 +7°C° 0 mm 5 mps 732 mmHg 81%
    12:00 +7°C° 0 mm 5 mps 732 mmHg 80%
    13:00 +7°C° 0 mm 5 mps 731 mmHg 79%
    14:00 +7°C° 0.8 mm 5 mps 730 mmHg 82%
    15:00 +7°C° 0.8 mm 5 mps 729 mmHg 86%
    16:00 +7°C° 0.8 mm 5 mps 729 mmHg 89%
    17:00 +8°C° 0.6 mm 5 mps 728 mmHg 89%
    18:00 +8°C° 0.6 mm 5 mps 728 mmHg 90%
    19:00 +8°C° 0.6 mm 5 mps 728 mmHg 91%
    20:00 +8°C° 0.1 mm 5 mps 728 mmHg 90%
    21:00 +9°C° 0.1 mm 5 mps 727 mmHg 89%
    22:00 +9°C° 0.1 mm 5 mps 727 mmHg 88%
    23:00 +8°C° 0.3 mm 5 mps 727 mmHg 87%

    Day after tomorrow, 9 December, Monday

    Time Temperature Precipitation Wind Pressure Humidity
    00:00 +7°C° 0.3 mm 5 mps 727 mmHg 85%
    01:00 +6°C° 0.3 mm 5 mps 727 mmHg 84%
    02:00 +6°C° 0 mm 5 mps 726 mmHg 83%
    03:00 +5°C° 0 mm 5 mps 726 mmHg 83%
    04:00 +3°C° 0 mm 5 mps 726 mmHg 82%
    05:00 +3°C° 0.1 mm 6 mps 726 mmHg 81%
    06:00 +3°C° 0.1 mm 6 mps 727 mmHg 80%
    07:00 +3°C° 0.1 mm 7 mps 727 mmHg 80%
    08:00 +3°C° 0 mm 6 mps 726 mmHg 80%
    09:00 +3°C° 0 mm 6 mps 726 mmHg 80%
    10:00 +3°C° 0 mm 6 mps 725 mmHg 79%
    11:00 +4°C° 0 mm 6 mps 725 mmHg 79%
    12:00 +4°C° 0 mm 6 mps 725 mmHg 78%
    13:00 +4°C° 0 mm 6 mps 724 mmHg 77%
    14:00 +4°C° 0.1 mm 6 mps 724 mmHg 79%
    15:00 +3°C° 0.1 mm 7 mps 723 mmHg 81%
    16:00 +3°C° 0.1 mm 7 mps 723 mmHg 84%
    17:00 +3°C° 0.4 mm 7 mps 723 mmHg 87%
    18:00 +3°C° 0.4 mm 6 mps 724 mmHg 90%
    19:00 +2°C° 0.4 mm 6 mps 724 mmHg 93%
    20:00 +3°C° 0.3 mm 6 mps 725 mmHg 90%
    21:00 +3°C° 0.3 mm 6 mps 726 mmHg 88%
    22:00 +3°C° 0.3 mm 6 mps 727 mmHg 86%
    23:00 +3°C° 0.6 mm 6 mps 728 mmHg 85%

    10 December, Tuesday

    Time Temperature Precipitation Wind Pressure Humidity
    00:00 +2°C° 0.6 mm 6 mps 729 mmHg 84%
    01:00 +2°C° 0.6 mm 6 mps 730 mmHg 83%
    02:00 +1°C° 0.1 mm 6 mps 731 mmHg 86%
    03:00 0°C° 0.1 mm 7 mps 732 mmHg 89%
    04:00 -1°C° 0.1 mm 7 mps 733 mmHg 92%
    05:00 -1°C° 0.2 mm 7 mps 735 mmHg 89%
    06:00 -1°C° 0.2 mm 7 mps 736 mmHg 86%
    07:00 -1°C° 0.2 mm 6 mps 737 mmHg 83%
    08:00 -1°C° 0.1 mm 6 mps 738 mmHg 85%
    09:00 -1°C° 0.1 mm 6 mps 739 mmHg 88%
    10:00 -1°C° 0.1 mm 6 mps 739 mmHg 90%
    11:00 -1°C° 0.2 mm 6 mps 740 mmHg 88%
    12:00 -1°C° 0.2 mm 6 mps 741 mmHg 86%
    13:00 -1°C° 0.2 mm 6 mps 741 mmHg 84%
    14:00 0°C° 0 mm 5 mps 741 mmHg 84%
    15:00 0°C° 0 mm 4 mps 742 mmHg 84%
    16:00 +1°C° 0 mm 3 mps 742 mmHg 84%
    17:00 +1°C° 0 mm 2 mps 742 mmHg 87%
    18:00 -1°C° 0 mm 2 mps 743 mmHg 90%
    19:00 +1°C° 0 mm 1 mps 743 mmHg 92%
    20:00 0°C° 0 mm 1 mps 743 mmHg 93%
    21:00 -2°C° 0 mm 2 mps 743 mmHg 93%
    22:00 -2°C° 0 mm 2 mps 743 mmHg 93%
    23:00 -2°C° 0 mm 2 mps 742 mmHg 93%

    11 December, Wednesday

    Time Temperature Precipitation Wind Pressure Humidity
    00:00 -2°C° 0 mm 2 mps 741 mmHg 93%
    01:00 -2°C° 0 mm 2 mps 741 mmHg 93%
    02:00 -2°C° 0 mm 2 mps 740 mmHg 91%
    03:00 -2°C° 0 mm 3 mps 740 mmHg 89%
    04:00 -2°C° 0 mm 3 mps 739 mmHg 87%
    05:00 -2°C° 0 mm 3 mps 739 mmHg 86%
    06:00 -1°C° 0 mm 3 mps 738 mmHg 84%
    07:00 -1°C° 0 mm 3 mps 738 mmHg 83%
    08:00 -1°C° 0 mm 3 mps 738 mmHg 80%
    09:00 -1°C° 0 mm 3 mps 737 mmHg 77%
    10:00 0°C° 0 mm 3 mps 737 mmHg 74%
    11:00 0°C° 0 mm 3 mps 736 mmHg 72%
    12:00 +1°C° 0 mm 3 mps 736 mmHg 69%
    13:00 +1°C° 0 mm 3 mps 735 mmHg 67%
    14:00 +1°C° 0 mm 3 mps 735 mmHg 69%
    15:00 +2°C° 0 mm 2 mps 735 mmHg 71%
    16:00 +2°C° 0 mm 2 mps 734 mmHg 72%
    17:00 +2°C° 0 mm 2 mps 734 mmHg 73%
    18:00 +3°C° 0 mm 1 mps 734 mmHg 74%
    19:00 +3°C° 0 mm 1 mps 734 mmHg 75%
    20:00 +3°C° 0.3 mm 1 mps 734 mmHg 79%
    21:00 +3°C° 0.3 mm 1 mps 734 mmHg 82%
    22:00 +3°C° 0.3 mm 1 mps 734 mmHg 86%
    23:00 +3°C° 0.3 mm 1 mps 734 mmHg 89%

    12 December, Thursday

    Time Temperature Precipitation Wind Pressure Humidity
    00:00 +2°C° 0.3 mm 2 mps 734 mmHg 92%
    01:00 +3°C° 0.3 mm 2 mps 734 mmHg 95%
    02:00 +3°C° 0.6 mm 2 mps 734 mmHg 95%
    03:00 +2°C° 0.6 mm 3 mps 734 mmHg 95%
    04:00 +1°C° 0.6 mm 4 mps 734 mmHg 95%
    05:00 +2°C° 0 mm 3 mps 734 mmHg 95%
    06:00 +1°C° 0 mm 3 mps 734 mmHg 94%
    07:00 +2°C° 0 mm 2 mps 734 mmHg 94%
    08:00 +2°C° 0 mm 2 mps 734 mmHg 93%
    09:00 +3°C° 0 mm 2 mps 734 mmHg 91%
    10:00 +3°C° 0 mm 2 mps 734 mmHg 90%
    11:00 +2°C° 0 mm 3 mps 734 mmHg 90%
    12:00 +2°C° 0 mm 3 mps 734 mmHg 91%
    13:00 +1°C° 0 mm 4 mps 733 mmHg 91%
    14:00 +1°C° 0 mm 3 mps 733 mmHg 91%
    15:00 +1°C° 0 mm 3 mps 732 mmHg 91%
    16:00 +1°C° 0 mm 2 mps 732 mmHg 90%
    17:00 +1°C° 0 mm 2 mps 731 mmHg 90%
    18:00 +1°C° 0 mm 2 mps 731 mmHg 90%
    19:00 0°C° 0 mm 3 mps 730 mmHg 90%
    20:00 -1°C° 0 mm 3 mps 729 mmHg 89%
    21:00 -1°C° 0 mm 3 mps 728 mmHg 88%
    22:00 -1°C° 0 mm 3 mps 727 mmHg 87%
    23:00 -2°C° 0 mm 4 mps 725 mmHg 86%
    Show more